Wind_Speed
30 30 32 32 32 32 31 31 31 29 28 26 24 23 22 22 21 20 19 18 17 17 17 16 15 15 15 15 15 15 15 14 14 14 15 15 15 15 15 16 16 16 16 17
32 32 32 33 33 33 32 32 31 30 29 27 27 25 24 23 22 21 20 20 19 18 18 17 16 16 16 16 16 16 16 16 16 17 18 18 17 17 18 18 18 18 18 19
34 33 32 33 33 33 33 33 33 32 31 30 29 28 27 26 25 23 22 22 21 21 19 19 17 17 17 17 18 18 19 19 19 19 20 20 20 20 20 19 19 19 19 20
36 35 36 34 34 33 33 33 34 34 33 32 31 29 28 27 27 25 23 22 22 22 21 20 20 20 20 20 20 20 21 22 21 22 22 22 23 23 22 20 20 20 21 22
38 38 37 36 35 35 34 34 34 34 34 34 33 31 30 28 27 27 26 25 24 24 24 23 23 22 22 22 22 23 23 23 23 24 24 24 24 24 23 21 21 22 23 23
40 40 40 38 37 36 36 37 35 35 35 34 34 33 31 30 29 29 28 27 27 27 26 25 25 24 24 25 25 25 24 24 24 24 24 24 24 23 23 23 23 24 25 25
42 41 40 39 38 37 37 37 36 36 36 36 36 35 33 32 31 30 30 29 29 29 29 28 28 27 26 26 26 27 26 26 25 25 24 24 24 24 24 25 25 25 26 27
42 42 42 39 38 38 37 36 36 36 37 37 37 37 35 34 32 31 31 31 30 30 30 30 30 29 29 29 28 29 29 28 27 26 26 25 25 25 26 26 27 27 27 27
42 42 41 40 39 38 38 37 37 36 37 37 37 37 36 36 35 34 33 33 33 33 31 31 32 32 31 31 32 31 31 30 29 28 28 28 27 27 27 27 28 28 28 29
40 41 40 39 39 39 39 38 38 38 38 38 38 37 37 36 36 36 36 35 34 34 33 33 32 33 32 31 31 32 32 32 32 30 29 29 28 28 28 29 29 29 29 29
38 39 39 39 39 39 39 39 39 38 38 38 38 38 38 37 37 37 36 35 35 34 34 32 32 33 33 32 33 33 33 33 32 31 29 29 29 29 30 30 30 30 30 30
38 38 39 39 39 40 40 40 40 40 39 38 39 38 38 39 38 37 37 36 36 35 35 33 32 32 33 34 34 33 33 33 32 30 29 30 30 31 31 32 32 32 32 32
38 38 39 40 40 40 41 40 40 39 39 38 37 37 38 38 38 37 36 35 35 36 36 34 34 33 34 34 34 34 34 34 33 32 31 31 32 32 33 33 34 34 34 34
37 37 37 38 39 39 39 39 38 38 38 37 37 37 37 37 37 37 36 36 36 36 36 34 34 34 34 34 34 34 34 34 34 33 33 33 33 33 34 35 35 35 36 36
34 35 35 36 37 37 37 37 37 36 36 37 37 37 36 37 37 37 36 36 36 35 34 34 33 33 33 33 33 34 34 34 34 34 34 33 33 34 34 34 35 35 35 36
31 32 33 34 34 35 35 34 34 34 34 35 35 36 36 37 37 36 35 35 35 35 36 34 33 33 33 34 34 34 34 34 34 34 34 34 34 34 34 34 35 35 35 35
29 30 30 31 32 32 32 32 32 32 32 32 32 33 35 35 35 35 35 34 33 34 35 34 32 33 34 33 33 34 36 36 35 35 34 34 35 34 34 34 34 34 34 34
28 28 27 28 28 28 29 29 29 30 31 32 32 32 32 33 33 33 33 32 31 32 31 31 32 32 33 33 33 33 34 35 35 35 35 35 35 34 34 34 34 34 33 33
23 24 24 24 24 24 24 26 28 28 28 28 28 28 28 29 29 30 31 32 33 32 30 31 32 32 33 33 33 33 33 33 34 34 34 34 33 33 33 33 34 34 33 34
20 20 21 21 21 22 23 24 25 25 25 24 25 26 27 28 28 28 28 29 29 29 30 31 32 32 31 31 32 32 32 33 33 33 33 33 33 33 33 33 33 33 33 33
18 17 17 18 18 19 21 21 21 22 23 23 23 23 24 24 25 25 25 26 27 28 28 29 30 30 30 30 30 31 32 32 32 32 32 33 33 33 33 33 33 33 33 33
15 15 16 16 16 16 17 18 19 19 20 21 21 21 21 21 22 22 23 23 24 24 25 25 26 26 27 28 29 30 30 30 31 31 31 32 32 32 32 32 33 33 33 33
14 14 14 14 14 15 15 16 16 17 18 19 19 19 19 19 20 20 21 22 22 22 23 23 24 25 26 27 28 29 29 29 30 30 30 30 31 31 32 32 32 33 33 33
12 12 12 13 13 13 14 15 15 16 17 17 17 17 17 17 18 19 20 22 23 23 23 23 23 24 25 26 27 27 28 28 29 29 28 29 29 30 30 30 31 31 31 31
9 9 9 10 10 11 11 11 12 13 13 13 14 14 14 15 15 17 18 19 19 20 21 22 22 23 24 25 25 25 26 27 27 27 27 28 28 28 28 28 29 30 30 30
8 8 7 7 8 8 9 9 10 10 10 10 11 12 13 14 15 15 16 17 17 18 19 20 20 21 22 23 23 24 25 25 25 25 25 25 26 26 27 27 27 27 28 29
7 7 6 6 6 6 6 7 8 9 9 10 10 11 11 12 13 14 15 15 16 17 18 19 19 20 21 22 22 23 22 22 22 23 23 24 24 25 25 25 25 26 27 28
Wind_Direction
235 233 233 236 239 243 246 251 254 256 258 261 262 262 261 263 267 271 275 277 281 280 283 286 285 286 289 293 299 302 305 306 309 308 305 307 308 306 304 302 301 297 294 296
239 238 237 237 239 242 245 249 252 255 257 259 261 263 263 263 264 268 273 275 278 278 280 281 285 287 286 288 293 297 298 299 300 302 299 298 299 300 300 299 298 297 296 297
242 242 242 240 240 243 245 248 251 254 257 258 261 264 264 262 264 266 269 270 271 273 277 280 282 283 284 284 287 292 292 291 294 296 298 296 298 296 295 296 296 298 297 298
245 244 245 245 244 244 246 249 251 253 255 257 258 261 263 264 264 266 266 266 269 271 273 275 278 280 282 283 285 287 289 288 290 292 295 296 296 298 295 293 294 297 299 298
246 246 248 248 248 248 249 250 251 252 254 256 259 260 261 263 265 266 264 263 264 268 268 271 276 280 282 283 286 287 289 288 289 291 291 293 296 297 296 297 300 299 300 300
247 249 250 250 250 251 252 253 252 253 254 256 258 260 261 263 264 264 263 262 261 264 267 271 275 278 282 283 285 286 288 288 288 290 291 294 295 296 298 298 300 300 298 301
247 249 251 252 252 252 254 254 254 254 254 255 256 259 261 262 261 261 260 259 262 264 265 268 272 275 279 281 283 284 284 285 286 287 288 292 291 293 295 297 298 300 301 301
247 249 251 252 253 253 254 255 255 255 254 254 255 256 258 260 259 259 260 259 261 264 265 268 270 273 275 278 280 281 281 280 284 287 286 288 290 292 293 294 294 295 299 300
247 249 251 252 254 254 254 255 255 255 255 254 255 255 257 258 259 260 261 261 260 262 265 269 271 274 275 278 278 279 281 282 283 285 285 285 286 289 292 294 294 293 296 297
248 248 250 252 253 255 255 256 256 256 256 256 255 255 256 258 259 261 262 262 262 264 267 269 272 273 275 276 275 277 279 282 282 281 282 283 284 288 291 292 295 295 296 296
248 250 251 252 254 255 255 255 256 256 257 255 255 255 255 256 257 259 260 261 262 264 265 267 268 269 271 272 273 275 277 281 281 279 281 284 285 287 289 290 292 294 294 295
249 250 252 252 254 255 256 257 256 257 258 256 256 257 256 256 257 257 258 260 262 265 264 265 266 268 270 271 273 274 276 279 281 280 283 283 284 285 286 288 290 292 294 295
251 252 253 254 256 258 259 259 258 259 260 259 259 259 259 258 257 258 259 260 261 263 263 264 265 265 268 270 272 275 276 278 279 281 283 283 285 285 285 286 287 289 291 291
252 253 254 255 256 258 259 259 259 260 260 259 259 260 259 257 256 258 259 259 260 260 261 263 266 267 268 270 272 275 276 277 278 280 281 283 285 285 285 285 286 287 288 290
252 254 255 255 256 257 259 258 258 259 260 260 260 260 260 259 259 259 259 258 257 258 259 264 266 266 266 269 273 275 277 277 277 278 281 282 282 283 285 284 285 286 287 288
251 253 254 255 257 257 257 258 259 258 259 260 261 261 260 261 261 259 256 257 256 259 260 263 265 265 267 271 274 275 276 278 277 278 280 282 283 284 285 286 286 285 286 288
250 253 254 256 256 256 257 259 260 261 259 259 261 262 261 261 261 261 257 256 257 257 258 262 266 268 268 271 272 274 276 277 278 278 278 280 281 284 286 286 286 286 286 287
251 250 251 254 255 255 256 258 258 259 260 260 261 262 261 260 260 261 258 257 259 259 261 263 265 267 268 270 272 274 276 277 278 277 278 280 281 283 284 285 285 284 285 287
247 250 250 251 251 252 254 256 259 261 261 260 260 261 262 261 261 261 262 262 261 262 264 266 268 269 270 272 274 275 276 276 276 277 278 279 280 281 283 284 284 284 285 287
250 253 251 252 254 256 257 258 259 261 261 260 259 260 260 261 260 260 262 263 263 264 266 268 269 269 270 272 271 273 275 276 275 275 277 280 280 282 283 283 284 285 286 288
251 252 252 252 253 256 258 259 260 261 261 261 260 261 261 262 260 259 260 262 263 266 268 269 270 269 270 270 271 272 274 275 276 277 278 279 281 282 283 283 283 285 287 289
259 256 254 255 256 257 258 261 261 262 263 263 263 263 264 265 264 262 262 263 264 266 268 269 269 270 270 270 272 273 274 276 277 278 279 281 282 282 282 282 283 285 287 288
261 257 256 258 256 255 257 260 260 261 262 263 266 267 266 265 265 263 263 263 264 267 269 269 269 270 272 273 274 275 277 278 279 280 281 283 282 282 283 283 284 285 286 287
256 257 257 260 257 253 255 258 259 262 264 265 266 267 266 265 265 263 263 263 265 269 270 271 272 273 274 275 277 279 280 281 281 282 283 283 283 284 284 284 286 287 287 288
252 256 255 253 255 257 260 260 261 261 262 263 265 268 271 271 270 268 265 265 267 270 272 274 275 276 278 280 282 283 283 284 284 284 285 285 285 285 286 287 288 289 290 291
252 258 263 262 260 259 259 260 262 262 266 269 270 272 273 274 273 272 270 270 272 273 274 276 277 279 281 284 285 286 286 286 287 287 286 286 288 288 289 290 291 292 293 294
248 250 255 259 262 265 267 270 271 270 271 274 276 276 276 275 274 273 273 274 275 277 279 282 283 283 285 287 288 289 288 288 290 291 290 291 294 294 294 293 294 295 296 296
Height
5860 5863 5865 5868 5871 5873 5875 5877 5879 5881 5883 5886 5887 5888 5889 5890 5891 5891 5892 5892 5891 5891 5890 5889 5888 5887 5886 5885 5883 5882 5880 5879 5878 5877 5875 5874 5873 5871 5870 5869 5868 5866 5865 5863
5853 5856 5859 5861 5864 5867 5869 5871 5873 5875 5877 5879 5880 5882 5884 5885 5886 5886 5887 5887 5886 5886 5885 5885 5884 5883 5882 5881 5880 5879 5877 5876 5874 5873 5872 5870 5869 5868 5866 5865 5864 5862 5860 5859
5845 5849 5851 5854 5858 5860 5862 5864 5866 5868 5871 5872 5874 5875 5877 5879 5880 5881 5881 5881 5881 5881 5880 5880 5880 5879 5878 5877 5876 5875 5873 5872 5871 5870 5868 5866 5865 5863 5862 5860 5859 5858 5856 5854
5838 5842 5844 5850 5850 5853 5855 5857 5859 5861 5863 5865 5867 5869 5870 5872 5873 5874 5875 5875 5875 5875 5874 5874 5874 5874 5873 5872 5871 5870 5869 5868 5867 5865 5864 5862 5861 5859 5857 5855 5854 5852 5851 5849
5829 5832 5835 5840 5842 5845 5847 5850 5852 5854 5856 5857 5859 5861 5863 5864 5865 5866 5867 5868 5868 5869 5868 5868 5868 5868 5867 5866 5866 5865 5863 5862 5861 5860 5858 5857 5856 5853 5852 5850 5848 5846 5845 5843
5820 5823 5827 5832 5835 5836 5840 5841 5843 5845 5847 5849 5850 5853 5856 5856 5857 5858 5859 5860 5861 5862 5862 5862 5861 5861 5860 5860 5860 5859 5857 5856 5854 5853 5852 5851 5850 5848 5846 5844 5843 5841 5839 5837
5811 5814 5817 5822 5825 5828 5831 5833 5834 5836 5838 5840 5842 5844 5846 5848 5849 5850 5851 5852 5853 5854 5854 5854 5854 5853 5853 5853 5852 5851 5850 5849 5848 5846 5845 5844 5843 5842 5840 5838 5836 5834 5832 5830
5802 5805 5810 5812 5815 5818 5821 5823 5825 5826 5828 5830 5832 5834 5837 5838 5840 5841 5842 5843 5844 5844 5845 5845 5845 5845 5845 5844 5844 5843 5842 5841 5840 5839 5838 5837 5836 5834 5833 5831 5829 5827 5826 5824
5793 5797 5799 5802 5804 5807 5810 5813 5815 5817 5819 5821 5823 5825 5827 5829 5830 5832 5833 5834 5834 5835 5836 5836 5836 5836 5836 5835 5834 5833 5833 5833 5832 5831 5830 5829 5828 5827 5825 5823 5822 5820 5818 5816
5782 5786 5789 5792 5794 5797 5800 5802 5805 5807 5809 5811 5813 5815 5817 5819 5820 5822 5822 5823 5824 5825 5826 5827 5827 5826 5826 5825 5825 5825 5825 5824 5823 5822 5821 5820 5819 5818 5817 5816 5814 5812 5811 5809
5773 5776 5779 5782 5784 5787 5789 5792 5794 5796 5798 5800 5802 5804 5806 5808 5810 5811 5812 5813 5814 5814 5815 5816 5817 5817 5817 5816 5816 5816 5816 5815 5813 5812 5812 5812 5811 5810 5809 5807 5805 5804 5802 5800
5763 5766 5769 5772 5774 5776 5779 5781 5783 5786 5788 5789 5791 5793 5794 5796 5798 5800 5801 5802 5803 5804 5804 5804 5805 5806 5807 5806 5806 5806 5806 5806 5804 5802 5802 5802 5802 5801 5799 5798 5797 5795 5793 5792
5753 5756 5758 5761 5764 5766 5768 5770 5772 5775 5777 5779 5780 5782 5783 5785 5787 5789 5790 5791 5793 5794 5795 5795 5795 5795 5795 5796 5796 5796 5796 5796 5795 5794 5793 5792 5791 5791 5790 5789 5787 5786 5784 5783
5743 5746 5748 5751 5753 5755 5757 5759 5761 5764 5766 5768 5769 5771 5772 5774 5776 5777 5778 5780 5782 5783 5784 5784 5784 5784 5784 5784 5785 5785 5785 5785 5785 5784 5783 5782 5782 5781 5780 5779 5778 5776 5775 5773
5734 5736 5739 5741 5743 5745 5747 5749 5751 5753 5755 5757 5758 5760 5762 5763 5764 5765 5766 5768 5770 5771 5773 5774 5773 5774 5774 5774 5774 5775 5775 5775 5774 5773 5773 5772 5771 5771 5769 5768 5767 5766 5764 5762
5725 5727 5729 5732 5734 5736 5737 5739 5741 5743 5745 5747 5748 5749 5751 5752 5753 5755 5755 5756 5758 5761 5762 5763 5763 5764 5765 5765 5765 5765 5765 5765 5764 5763 5763 5762 5761 5760 5759 5758 5756 5755 5753 5751
5718 5720 5721 5723 5725 5726 5728 5730 5732 5733 5735 5737 5738 5739 5740 5742 5743 5745 5746 5746 5747 5749 5752 5753 5754 5755 5755 5755 5755 5755 5755 5755 5754 5753 5752 5751 5751 5750 5748 5747 5746 5744 5742 5741
5710 5712 5713 5715 5716 5718 5720 5721 5722 5724 5726 5727 5728 5730 5731 5732 5734 5735 5736 5737 5739 5740 5742 5743 5744 5745 5745 5745 5745 5745 5745 5744 5743 5742 5741 5741 5740 5739 5738 5737 5735 5734 5732 5730
5703 5705 5706 5707 5709 5710 5711 5713 5714 5716 5717 5717 5719 5721 5722 5723 5725 5726 5727 5729 5730 5731 5732 5733 5734 5735 5736 5736 5735 5735 5734 5733 5732 5731 5731 5730 5729 5728 5727 5726 5725 5723 5721 5719
5697 5698 5699 5700 5702 5703 5704 5705 5706 5708 5709 5710 5711 5712 5713 5714 5715 5717 5718 5719 5721 5722 5723 5723 5724 5725 5725 5725 5725 5725 5724 5723 5722 5721 5721 5720 5719 5718 5717 5716 5714 5713 5711 5709
5692 5692 5693 5694 5695 5696 5697 5698 5699 5701 5702 5703 5704 5704 5705 5706 5707 5708 5710 5711 5712 5713 5714 5714 5714 5715 5715 5715 5715 5715 5714 5713 5712 5711 5711 5710 5709 5708 5707 5705 5704 5702 5700 5698
5687 5687 5688 5689 5690 5691 5692 5693 5693 5694 5695 5696 5697 5697 5698 5699 5700 5701 5702 5703 5704 5705 5705 5705 5706 5706 5706 5706 5706 5705 5705 5704 5703 5702 5701 5700 5699 5697 5696 5694 5693 5692 5690 5688
5683 5684 5684 5685 5686 5686 5687 5688 5688 5689 5689 5690 5691 5691 5691 5692 5693 5694 5695 5696 5697 5697 5697 5697 5698 5698 5698 5697 5697 5696 5696 5695 5694 5693 5692 5691 5689 5688 5686 5685 5683 5682 5680 5678
5680 5681 5681 5682 5683 5683 5684 5684 5684 5685 5685 5685 5686 5686 5686 5686 5687 5688 5689 5689 5690 5690 5691 5690 5690 5690 5690 5689 5689 5688 5687 5686 5685 5684 5683 5681 5680 5679 5677 5676 5674 5672 5670 5668
5678 5678 5679 5679 5680 5680 5681 5681 5681 5681 5681 5681 5681 5682 5682 5682 5683 5683 5683 5683 5684 5684 5684 5684 5684 5683 5683 5682 5681 5680 5679 5678 5677 5675 5674 5673 5671 5670 5668 5666 5664 5663 5661 5658
5676 5677 5677 5678 5678 5678 5678 5678 5678 5678 5678 5678 5678 5678 5678 5678 5679 5678 5678 5678 5678 5678 5678 5678 5677 5677 5676 5675 5674 5673 5672 5670 5669 5667 5666 5664 5663 5661 5659 5657 5655 5654 5652 5650
5674 5675 5675 5676 5676 5676 5676 5676 5676 5676 5676 5676 5676 5675 5675 5675 5675 5674 5674 5674 5674 5673 5673 5672 5671 5670 5670 5668 5667 5666 5665 5663 5662 5660 5659 5657 5655 5653 5651 5649 5648 5646 5644 5641